Location: Malvern Link
(52.1333°N, 2.3000°W)
Time: 14:36:35
(UTC+00:00)

Cosmos 1634 Rocket - Pass Details

Date: 01 December 2021
Orbit: 959 x 993 km, 82.9° (Epoch: 23 January)

Event Time Altitude Azimuth Distance (km) Brightness Sun altitude
Rises 02:42:57 0° 356° (N) 3,717 7.3 -46.2°
Reaches altitude 10° 02:47:37 10° 27° (NNE) 2,757 6.8 -45.6°
Maximum altitude 02:49:50 12° 48° (NE) 2,616 6.7 -45.3°
Drops below altitude 10° 02:52:02 10° 69° (ENE) 2,744 6.9 -45.0°
Sets 02:56:38 0° 100° (E) 3,678 7.6 -44.4°
